Terminal Aerodrome Forecast
Issued by NWS Nashville, TN

Home | Current Version | Previous Version | Text Only | Print | Product List | Glossary On
Versions: 1 2 3 4 5 6 7 8 9 10 11 12 13 14 15 16 17 18 19 20 21 22 23 24 25 26 27 28 29 30 31 32 33 34 35 36 37 38 39 40
046
FTUS44 KOHX 201635 AAC
TAFCSV
TAF AMD
KCSV 201635Z 2017/2112 22007KT P6SM BKN040
      TEMPO 2017/2021 BKN025 BKN040
     FM202100 20007KT P6SM BKN050
     FM210600 19006KT 4SM BR BKN015
     FM211000 19005KT 2SM BR BKN010=

USA.gov is the U.S. government's official web portal to all federal, state and local government web resources and services.